Погода в Армавире

Погода в Армавире : погода сейчас, прогноз погоды и архив. Всё, что Вы хотите узнать о погоде в Армавире!

Поиск расширенной информации на нашем сайте:

Другие новости

Новости СМИ2

Главная страница сайта

Новости сайта

03.07.2017

Напоминаем, что на нашем специализированном сайте Метеоцентр.Азия вы можете получить высокодетализированные автоматические прогнозы погоды по пунктам России, СНГ и мира в авиационном формате (включающие направление и скорость ветра, видимость, явления погоды, количество и форму облачности, нижнюю и верхнюю границу облачности).


Погода в Армавире - сегодня

Время (UTC), дата Ветер
(°,м/с) 
Видим.   Явления Облачность Т
(°С)
Тd
(°С)
f(%) Тe
(°С)
Pmin
(гПа)
dP
(гПа)
Po
(мм)
O2
(г/м3)
Тmin Tmax R s Состояние
почвы
00 18.11.17 110 (В) 4{12}  10 км    9/9 300 м 
[Sc]
+6.2 +3.2 81 +5  1021.7  -1.1  752  296           
03 18.11.17 110 (В) 3{10}  10 км    ясно 
+5.6 +2.7 82 +5  1020.2  -1.5  750  296  +5.6         
06 18.11.17 140 (ЮВ) 4{10}  10 км    3/0 верхняя 
[Ci fib]
+6.9 +3.1 77 +6  1020  0.1  750  294  +5.4         
09 18.11.17 140 (ЮВ) 4{11}  10 км    8/0 верхняя 
[Ci]
+11.9 +4.1 59 +11  1019.1  -0.5  750  289           
12 18.11.17 140 (ЮВ) 10 км    10/0 средняя, верхняя 
[Ac cast|Ci]
+13.6 +4.4 54 +14  1018.1  -0.9  749  287           
15 18.11.17 130 (ЮВ) 10 км    10/0 верхняя 
[Ci]
+8 +3.3 72 +7  1018.3  0.1  749  293    +13.7       
18 18.11.17 130 (ЮВ) 10 км    ясно 
+5.5 +2.8 83 +4  1017.9  -0.6  749  295           
21 18.11.17 140 (ЮВ) 10 км    ясно 
+4.8 +2.5 85 +3  1017.1  -0.9  748  296           
00 19.11.17 130 (ЮВ) 10 км    10/0 верхняя 
[Ci]
+4.2 +2.4 88 +4  1016  -1.1  747  296           
03 19.11.17 130 (ЮВ) 10 км    10/0 верхняя 
[Ci]
+4.8 +1.9 81 +4  1014.7  -1.3  746  295  +3.7         
06 19.11.17 150 (ЮВ) 10 км    10/0 верхняя 
[Ci]
+6.7 +2.2 73 +6  1014.5  0.1  746  293           
09 19.11.17 120 (ЮВ) 10 км    10/0 верхняя 
[Cc]
+14 +2 44 +15  1012.1  -1.8  745  285           
12 19.11.17 130 (ЮВ) 10 км    8/0 верхняя 
[Cc]
+15.9 +3.4 43 +17  1010.8  -1.1  744  283           
15 19.11.17 130 (ЮВ) 10 км    10/0 средняя 
[Ac und]
+12.3 +2.7 52 +13  1010.7  -0.4  744  286    +17.4       
18 19.11.17 120 (ЮВ) 10 км    10/0 средняя 
[Ac und]
+9.8 +3.3 64 +10  1010.8  744  289           
21 19.11.17 140 (ЮВ) 10 км    10/0 средняя 
[Ac und]
+7.1 +3.1 76 +6  1011.3  0.3  744  292           
00 20.11.17 140 (ЮВ) 10 км    10/0 средняя 
[Ac und]
+7.5 +3.7 77 +6  1011.7  0.4  744  291           
03 20.11.17 130 (ЮВ) 10 км    10/0 средняя 
[Ac und]
+7.3 +3.9 79 +6  1011  -0.7  744  291  +7         
06 20.11.17 150 (ЮВ) 10 км  {ливн. осадки}  10/3 600 м кучево-дожд., средняя 
[Cb cap|Ac As]
+8.9 +4.9 76 +9  1011.2  0.3  744  290           
09 20.11.17 120 (ЮВ) 10 км  {ливн. осадки}  10/0 средняя, верхняя 
[Ac trans|Ci]
+17.2 +4 41 +18  1008.7  -1.9  743  281           
12 20.11.17 140 (ЮВ) 10 км  {ливн. осадки}  10/4 600 м кучево-дожд., средняя, верхняя 
[Cb cap|Ac trans|Ci]
+18 +4 39 +19  1007.3  -1.4  742  280           
15 20.11.17 тихо ()   10 км  {ливн. осадки}  10/10 600 м 
[Sc]
+11.1 +5.6 69 +11  1007.5  -0.2  741  286    +19  0.1     
18 20.11.17 130 (ЮВ) 10 км  {ливн. осадки}  9/0 средняя 
[Ac trans]
+12.7 +5.4 61 +13  1006.3  -1.1  741  284           
21 20.11.17 130 (ЮВ) 10 км    4/0 средняя 
[Ac trans]
+8.2 +4.5 77 +8  1005.1  -1.5  740  289           
00 21.11.17 100 (В) 10 км    10/0 средняя, верхняя 
[Ac trans|Ci]
+5.7 +3.7 87 +5  1004  -1.3  739  291           
Время (UTC), дата Ветер
(°,м/с) 
Видим.   Явления Облачность Т
(°С)
Тd
(°С)
f(%) Тe
(°С)
Pmin
(гПа)
dP
(гПа)
Po
(мм)
O2
(г/м3)
Тmin Tmax R s Состояние
почвы

Для получения пояснительной информации подведите курсор к названию столбца.

ПОГОДА в Армавире - архив

Всё, что Вы хотите узнать о погоде в Армавире - удобно и подробно!

Выберите нужную дату (начиная с 1 января 2015* года) и нажмите кнопку "Найти".
Будут отображены архивные сводки погоды по пункту Армавир, начиная с указанной даты.


Отображать данные в формате CSV (для использования в таблицах Excel)


Внимание! Наш архив погоды предназначен исключительно для личного некоммерческого использования в познавательных целях. Если Вам необходимы официальные справки о состоянии погоды (для производственных, юридических, коммерческих и т.п. целей), обращайтесь в органы Росгидромета.

*Примечание: данная дата относится к архиву по метеостанциям СССР (Россия, СНГ, Балтия).
Архив по метеостанциям Зарубежной Европы и Азии (кроме Китая) хранится 10 дней, по другим регионам земного шара (Китай, Африка, Америка, Австралия, Океания) - 1 день.

Армавир - район местоположения метеостанции


Название, широта, долгота, высота метеостанции:
Армавир 45°ш. 41.1°д. 159 м над ур. моря [Российская Федерация]

Дополнительная информация

В oтличие oт бoльшинства пoгoдных сайтoв мы публикуем пoдрoбную метеoинфoрмацию в детальнoм прoфессиoнальнoм фoрмате.

Характеристики температуры и влажнoсти вoздуха измеряются на высoте 2 м в тени вдали oт зданий и деревьев.
Скoрoсть ветра измеряется на высoте 10 м (на урoвне рoста челoвека скoрoсть ветра ниже в 1.5-2 раза). Если метеoстанция нахoдится в гoрoде или в лесу, тo скoрoсть ветра занижена на 2-4 м/с пo сравнению с oткрытым местoм. Скoрoсть ветра над акватoриями крупных рек и oзёр, а также на вершинах хoлмoв на 2-5 м/с выше, чем в oбычных услoвиях.
Атмoсфернoе давление в разных тoчках местнoсти мoжет значительнo oтличаться oт давления на метеoстанции, в зависимoсти oт услoвий рельефа (при пoдъёме на 10 м давление пoнижается примернo на 1 мм рт.ст.).